| time (UTC) | temp F | wind direction | speed MPH | gust MPH | rain 1hr in | rain 24hr in | rain mn in | humidity % | barometer mb |
| 20260508005936 | 53 | 126 | 0.0 | 1.0 | 0.00 | 0.00 | 0.00 | 37 | 1006.5 |
| 20260508005432 | 54 | 148 | 1.0 | 1.0 | 0.00 | 0.00 | 0.00 | 36 | 1006.2 |
| 20260508004929 | 54 | 137 | 1.0 | 2.0 | 0.00 | 0.00 | 0.00 | 36 | 1006.4 |
| 20260508004425 | 54 | 127 | 0.0 | 2.0 | 0.00 | 0.00 | 0.00 | 35 | 1006.5 |
| 20260508003922 | 54 | 113 | 0.0 | 0.0 | 0.00 | 0.00 | 0.00 | 37 | 1006.3 |
| 20260508003419 | 55 | 133 | 0.0 | 1.0 | 0.00 | 0.00 | 0.00 | 36 | 1006.3 |
| 20260508002916 | 55 | 108 | 2.0 | 3.0 | 0.00 | 0.00 | 0.00 | 34 | 1006.7 |
| 20260508002407 | 55 | 196 | 1.0 | 1.0 | 0.00 | 0.00 | 0.00 | 33 | 1006.5 |
| 20260508001903 | 56 | 118 | 2.0 | 3.0 | 0.00 | 0.00 | 0.00 | 33 | 1006.4 |
| 20260508001359 | 56 | 151 | 1.0 | 2.0 | 0.00 | 0.00 | 0.00 | 33 | 1006.3 |
| 20260508000856 | 56 | 157 | 1.0 | 2.0 | 0.00 | 0.00 | 0.00 | 33 | 1006.6 |
| 20260508000352 | 55 | 108 | 1.0 | 3.0 | 0.00 | 0.00 | 0.00 | 33 | 1006.6 |
| 20260507235848 | 56 | 260 | 2.0 | 3.0 | 0.00 | 0.00 | 0.00 | 32 | 1006.6 |
| 20260507235346 | 56 | 146 | 1.0 | 3.0 | 0.00 | 0.00 | 0.00 | 32 | 1006.7 |
| 20260507234843 | 56 | 113 | 2.0 | 7.0 | 0.00 | 0.00 | 0.00 | 32 | 1006.6 |
| 20260507234340 | 56 | 30 | 3.0 | 5.0 | 0.00 | 0.00 | 0.00 | 31 | 1006.7 |
| 20260507233836 | 55 | 241 | 2.0 | 5.0 | 0.00 | 0.00 | 0.00 | 32 | 1006.7 |
| 20260507233334 | 56 | 205 | 4.0 | 5.0 | 0.00 | 0.00 | 0.00 | 31 | 1006.7 |
| 20260507232832 | 56 | 168 | 4.0 | 7.0 | 0.00 | 0.00 | 0.00 | 30 | 1006.7 |
| 20260507232328 | 57 | 77 | 2.0 | 7.0 | 0.00 | 0.00 | 0.00 | 30 | 1006.7 |
| 20260507231826 | 57 | 148 | 0.0 | 6.0 | 0.00 | 0.00 | 0.00 | 32 | 1006.6 |
| 20260507231322 | 57 | 314 | 2.0 | 6.0 | 0.00 | 0.00 | 0.00 | 31 | 1006.8 |
| 20260507230818 | 57 | 43 | 3.0 | 6.0 | 0.00 | 0.00 | 0.00 | 31 | 1006.8 |
| 20260507230316 | 57 | 194 | 2.0 | 3.0 | 0.00 | 0.00 | 0.00 | 30 | 1006.8 |
| 20260507225816 | 57 | 265 | 3.0 | 3.0 | 0.00 | 0.00 | 0.00 | 30 | 1006.9 |
| 20260507225312 | 59 | 62 | 3.0 | 3.0 | 0.00 | 0.00 | 0.00 | 28 | 1006.9 |
| 20260507224808 | 58 | 317 | 2.0 | 3.0 | 0.00 | 0.00 | 0.00 | 29 | 1006.9 |
| 20260507224305 | 57 | 345 | 3.0 | 6.0 | 0.00 | 0.00 | 0.00 | 30 | 1006.8 |
| 20260507223801 | 58 | 294 | 2.0 | 7.0 | 0.00 | 0.00 | 0.00 | 29 | 1007.0 |
| 20260507223257 | 57 | 128 | 2.0 | 6.0 | 0.00 | 0.00 | 0.00 | 30 | 1006.8 |
| 20260507222754 | 58 | 174 | 1.0 | 6.0 | 0.00 | 0.00 | 0.00 | 31 | 1007.0 |
| 20260507222250 | 56 | 274 | 3.0 | 3.0 | 0.00 | 0.00 | 0.00 | 30 | 1006.8 |
| 20260507221748 | 57 | 230 | 3.0 | 6.0 | 0.00 | 0.00 | 0.00 | 29 | 1007.3 |
| 20260507221244 | 56 | 105 | 0.0 | 3.0 | 0.00 | 0.00 | 0.00 | 30 | 1007.1 |
| 20260507220740 | 57 | 86 | 2.0 | 8.0 | 0.00 | 0.00 | 0.00 | 30 | 1006.9 |
| 20260507220239 | 58 | 90 | 2.0 | 3.0 | 0.00 | 0.00 | 0.00 | 29 | 1007.1 |
| 20260507215734 | 58 | 303 | 4.0 | 5.0 | 0.00 | 0.00 | 0.00 | 30 | 1007.1 |
| 20260507215233 | 58 | 170 | 2.0 | 3.0 | 0.00 | 0.00 | 0.00 | 30 | 1007.3 |
| 20260507214729 | 57 | 249 | 2.0 | 5.0 | 0.00 | 0.00 | 0.00 | 27 | 1007.3 |
| 20260507214227 | 56 | 58 | 2.0 | 6.0 | 0.00 | 0.00 | 0.00 | 30 | 1007.3 |
| 20260507213722 | 56 | 174 | 3.0 | 7.0 | 0.00 | 0.00 | 0.00 | 29 | 1007.1 |
| 20260507213219 | 57 | 180 | 3.0 | 6.0 | 0.00 | 0.00 | 0.00 | 30 | 1007.2 |
| 20260507212715 | 59 | 75 | 4.0 | 6.0 | 0.00 | 0.00 | 0.00 | 28 | 1007.3 |
| 20260507212212 | 57 | 163 | 3.0 | 8.0 | 0.00 | 0.00 | 0.00 | 29 | 1007.2 |
| 20260507211709 | 59 | 130 | 2.0 | 5.0 | 0.00 | 0.00 | 0.00 | 28 | 1007.2 |
| 20260507211204 | 58 | 178 | 2.0 | 3.0 | 0.00 | 0.00 | 0.00 | 29 | 1007.2 |
| 20260507210702 | 59 | 59 | 4.0 | 10.0 | 0.00 | 0.00 | 0.00 | 27 | 1007.5 |
| 20260507210159 | 57 | 137 | 0.0 | 6.0 | 0.00 | 0.00 | 0.00 | 30 | 1007.4 |
| 20260507205655 | 59 | 57 | 5.0 | 7.0 | 0.00 | 0.00 | 0.00 | 27 | 1007.4 |
| 20260507205152 | 60 | 137 | 3.0 | 5.0 | 0.00 | 0.00 | 0.00 | 28 | 1007.4 |
| 20260507204648 | 60 | 103 | 2.0 | 2.0 | 0.00 | 0.00 | 0.00 | 27 | 1007.4 |
| 20260507204146 | 60 | 71 | 3.0 | 7.0 | 0.00 | 0.00 | 0.00 | 27 | 1007.4 |
| 20260507203644 | 59 | 205 | 3.0 | 5.0 | 0.00 | 0.00 | 0.00 | 27 | 1007.7 |
| 20260507203141 | 60 | 158 | 1.0 | 6.0 | 0.00 | 0.00 | 0.00 | 29 | 1007.9 |
| 20260507202636 | 58 | 154 | 2.0 | 6.0 | 0.00 | 0.00 | 0.00 | 29 | 1007.8 |
| 20260507202133 | 59 | 334 | 2.0 | 5.0 | 0.00 | 0.00 | 0.00 | 27 | 1007.8 |
| 20260507201628 | 57 | 115 | 2.0 | 3.0 | 0.00 | 0.00 | 0.00 | 29 | 1007.9 |
| 20260507201125 | 56 | 180 | 1.0 | 2.0 | 0.00 | 0.00 | 0.00 | 31 | 1007.9 |
| 20260507200621 | 58 | 264 | 3.0 | 8.0 | 0.00 | 0.00 | 0.00 | 29 | 1008.1 |
| 20260507200117 | 58 | 333 | 5.0 | 8.0 | 0.00 | 0.00 | 0.00 | 28 | 1008.0 |
| 20260507195614 | 58 | 118 | 0.0 | 3.0 | 0.00 | 0.00 | 0.00 | 28 | 1008.2 |
| 20260507195112 | 57 | 112 | 1.0 | 3.0 | 0.00 | 0.00 | 0.00 | 29 | 1008.4 |
| 20260507194608 | 57 | 32 | 3.0 | 5.0 | 0.00 | 0.00 | 0.00 | 30 | 1008.2 |
| 20260507194103 | 58 | 70 | 3.0 | 6.0 | 0.00 | 0.00 | 0.00 | 27 | 1008.5 |
| 20260507193601 | 57 | 54 | 2.0 | 10.0 | 0.00 | 0.00 | 0.00 | 30 | 1008.4 |
| 20260507193058 | 57 | 315 | 2.0 | 8.0 | 0.00 | 0.00 | 0.00 | 31 | 1008.5 |
| 20260507192554 | 57 | 178 | 2.0 | 6.0 | 0.00 | 0.00 | 0.00 | 32 | 1008.6 |
| 20260507192051 | 55 | 158 | 2.0 | 2.0 | 0.00 | 0.00 | 0.00 | 31 | 1008.3 |
| 20260507191546 | 55 | 100 | 0.0 | 2.0 | 0.00 | 0.00 | 0.00 | 31 | 1008.7 |
| 20260507191044 | 56 | 256 | 2.0 | 3.0 | 0.00 | 0.00 | 0.00 | 30 | 1008.6 |
| 20260507190541 | 55 | 239 | 2.0 | 6.0 | 0.00 | 0.00 | 0.00 | 34 | 1008.9 |
| 20260507190040 | 53 | 110 | 2.0 | 3.0 | 0.00 | 0.00 | 0.00 | 34 | 1008.7 |
| 20260507185538 | 55 | 76 | 1.0 | 2.0 | 0.00 | 0.00 | 0.00 | 30 | 1008.6 |
| 20260507185034 | 54 | 132 | 1.0 | 2.0 | 0.00 | 0.00 | 0.00 | 32 | 1008.6 |
| 20260507184532 | 55 | 194 | 1.0 | 3.0 | 0.00 | 0.00 | 0.00 | 31 | 1008.6 |
| 20260507184030 | 54 | 117 | 0.0 | 2.0 | 0.00 | 0.00 | 0.00 | 32 | 1008.9 |
| 20260507183525 | 54 | 115 | 3.0 | 7.0 | 0.00 | 0.00 | 0.00 | 31 | 1008.6 |
| 20260507183023 | 52 | 98 | 1.0 | 2.0 | 0.00 | 0.00 | 0.00 | 33 | 1008.9 |
| 20260507182519 | 54 | 196 | 1.0 | 2.0 | 0.00 | 0.00 | 0.00 | 30 | 1009.1 |
| 20260507182015 | 55 | 149 | 1.0 | 6.0 | 0.00 | 0.00 | 0.00 | 29 | 1009.1 |
| 20260507181512 | 57 | 272 | 8.0 | 13.0 | 0.00 | 0.00 | 0.00 | 29 | 1009.0 |
| 20260507181008 | 57 | 237 | 2.0 | 3.0 | 0.00 | 0.00 | 0.00 | 30 | 1009.1 |
| 20260507180504 | 55 | 323 | 4.0 | 6.0 | 0.00 | 0.00 | 0.00 | 30 | 1008.9 |
| 20260507180001 | 56 | 130 | 3.0 | 6.0 | 0.00 | 0.00 | 0.00 | 28 | 1009.2 |
| 20260507175458 | 56 | 174 | 1.0 | 2.0 | 0.00 | 0.00 | 0.00 | 30 | 1009.3 |
| 20260507174955 | 57 | 143 | 1.0 | 6.0 | 0.00 | 0.00 | 0.00 | 28 | 1009.5 |
| 20260507174452 | 56 | 20 | 4.0 | 7.0 | 0.00 | 0.00 | 0.00 | 30 | 1009.4 |
| 20260507173950 | 54 | 190 | 4.0 | 6.0 | 0.00 | 0.00 | 0.00 | 31 | 1009.4 |
| 20260507173447 | 53 | 167 | 0.0 | 2.0 | 0.00 | 0.00 | 0.00 | 35 | 1009.4 |
| 20260507172943 | 52 | 147 | 2.0 | 2.0 | 0.00 | 0.00 | 0.00 | 31 | 1009.5 |
| 20260507172440 | 54 | 76 | 5.0 | 7.0 | 0.00 | 0.00 | 0.00 | 30 | 1009.6 |
| 20260507171937 | 52 | 123 | 0.0 | 8.0 | 0.00 | 0.00 | 0.00 | 34 | 1009.5 |
| 20260507171432 | 53 | 203 | 2.0 | 5.0 | 0.00 | 0.00 | 0.00 | 32 | 1009.7 |
| 20260507170930 | 53 | 109 | 0.0 | 2.0 | 0.00 | 0.00 | 0.00 | 32 | 1009.7 |
| 20260507170426 | 53 | 115 | 1.0 | 7.0 | 0.00 | 0.00 | 0.00 | 32 | 1009.6 |
| 20260507165923 | 53 | 347 | 1.0 | 5.0 | 0.00 | 0.00 | 0.00 | 30 | 1009.7 |
| 20260507165419 | 53 | 81 | 2.0 | 6.0 | 0.00 | 0.00 | 0.00 | 31 | 1010.0 |
| 20260507164914 | 53 | 293 | 3.0 | 6.0 | 0.00 | 0.00 | 0.00 | 30 | 1009.9 |
| 20260507164412 | 52 | 102 | 1.0 | 3.0 | 0.00 | 0.00 | 0.00 | 33 | 1009.8 |
| 20260507163909 | 51 | 318 | 2.0 | 5.0 | 0.00 | 0.00 | 0.00 | 33 | 1009.8 |
| 20260507163407 | 52 | 203 | 1.0 | 3.0 | 0.00 | 0.00 | 0.00 | 33 | 1009.9 |
| 20260507162903 | 53 | 155 | 2.0 | 7.0 | 0.00 | 0.00 | 0.00 | 32 | 1009.9 |
| 20260507162358 | 52 | 118 | 1.0 | 5.0 | 0.00 | 0.00 | 0.00 | 33 | 1010.0 |
| 20260507161855 | 51 | 262 | 2.0 | 3.0 | 0.00 | 0.00 | 0.00 | 35 | 1010.1 |
| 20260507161352 | 50 | 132 | 1.0 | 1.0 | 0.00 | 0.00 | 0.00 | 36 | 1010.2 |
| 20260507160849 | 49 | 273 | 4.0 | 6.0 | 0.00 | 0.00 | 0.00 | 37 | 1010.1 |
| 20260507160344 | 52 | 113 | 1.0 | 5.0 | 0.00 | 0.00 | 0.00 | 35 | 1010.1 |
| 20260507155841 | 51 | 193 | 1.0 | 3.0 | 0.00 | 0.00 | 0.00 | 36 | 1010.1 |
| 20260507155336 | 51 | 325 | 2.0 | 3.0 | 0.00 | 0.00 | 0.00 | 37 | 1010.2 |
| 20260507154833 | 51 | 30 | 2.0 | 7.0 | 0.00 | 0.00 | 0.00 | 37 | 1010.4 |
| 20260507154331 | 51 | 216 | 1.0 | 7.0 | 0.00 | 0.00 | 0.00 | 38 | 1010.1 |
| 20260507153828 | 50 | 127 | 0.0 | 3.0 | 0.00 | 0.00 | 0.00 | 36 | 1009.8 |
| 20260507153324 | 49 | 312 | 3.0 | 3.0 | 0.00 | 0.00 | 0.00 | 39 | 1010.3 |
| 20260507152821 | 50 | 214 | 4.0 | 5.0 | 0.00 | 0.00 | 0.00 | 37 | 1010.2 |
| 20260507152317 | 50 | 89 | 3.0 | 3.0 | 0.00 | 0.00 | 0.00 | 39 | 1010.2 |
| 20260507151813 | 50 | 103 | 1.0 | 3.0 | 0.00 | 0.00 | 0.00 | 38 | 1010.3 |
| 20260507151309 | 49 | 153 | 0.0 | 5.0 | 0.00 | 0.00 | 0.00 | 40 | 1010.2 |
| 20260507150807 | 49 | 101 | 1.0 | 5.0 | 0.00 | 0.00 | 0.00 | 39 | 1010.3 |
| 20260507150303 | 49 | 101 | 1.0 | 2.0 | 0.00 | 0.00 | 0.00 | 40 | 1010.1 |
| 20260507145759 | 50 | 168 | 1.0 | 3.0 | 0.00 | 0.00 | 0.00 | 41 | 1010.3 |
| 20260507145256 | 49 | 166 | 1.0 | 3.0 | 0.00 | 0.00 | 0.00 | 42 | 1010.3 |
| 20260507144753 | 48 | 172 | 3.0 | 5.0 | 0.00 | 0.00 | 0.00 | 42 | 1010.1 |
| 20260507144250 | 48 | 146 | 0.0 | 2.0 | 0.00 | 0.00 | 0.00 | 45 | 1010.2 |
| 20260507143747 | 48 | 55 | 3.0 | 3.0 | 0.00 | 0.00 | 0.00 | 43 | 1010.4 |
| 20260507143244 | 48 | 147 | 0.0 | 2.0 | 0.00 | 0.00 | 0.00 | 44 | 1010.3 |
| 20260507142740 | 47 | 188 | 3.0 | 3.0 | 0.00 | 0.00 | 0.00 | 44 | 1010.6 |
| 20260507142237 | 46 | 107 | 2.0 | 5.0 | 0.00 | 0.00 | 0.00 | 46 | 1010.7 |
| 20260507141733 | 47 | 107 | 1.0 | 3.0 | 0.00 | 0.00 | 0.00 | 43 | 1010.6 |
| 20260507141230 | 45 | 122 | 1.0 | 2.0 | 0.00 | 0.00 | 0.00 | 47 | 1010.5 |
| 20260507140726 | 45 | 110 | 0.0 | 3.0 | 0.00 | 0.00 | 0.00 | 50 | 1010.6 |
| 20260507140224 | 45 | 41 | 3.0 | 5.0 | 0.00 | 0.00 | 0.00 | 50 | 1010.9 |
| 20260507135721 | 44 | 101 | 1.0 | 2.0 | 0.00 | 0.00 | 0.00 | 54 | 1010.8 |
| 20260507135218 | 44 | 157 | 1.0 | 2.0 | 0.00 | 0.00 | 0.00 | 52 | 1010.8 |
| 20260507134714 | 44 | 234 | 3.0 | 5.0 | 0.00 | 0.00 | 0.00 | 53 | 1010.7 |
| 20260507134210 | 44 | 54 | 2.0 | 2.0 | 0.00 | 0.00 | 0.00 | 53 | 1010.8 |
| 20260507133707 | 43 | 91 | 2.0 | 3.0 | 0.00 | 0.00 | 0.00 | 54 | 1010.9 |
| 20260507133204 | 43 | 117 | 0.0 | 1.0 | 0.00 | 0.00 | 0.00 | 58 | 1010.9 |
| 20260507132701 | 42 | 219 | 2.0 | 2.0 | 0.00 | 0.00 | 0.00 | 58 | 1010.8 |
| 20260507132157 | 42 | 174 | 2.0 | 3.0 | 0.00 | 0.00 | 0.00 | 59 | 1010.7 |
| 20260507131654 | 42 | 107 | 0.0 | 3.0 | 0.00 | 0.00 | 0.00 | 59 | 1010.9 |
| 20260507131152 | 41 | 350 | 3.0 | 3.0 | 0.00 | 0.00 | 0.00 | 61 | 1010.9 |
| 20260507130648 | 41 | 140 | 0.0 | 1.0 | 0.00 | 0.00 | 0.00 | 65 | 1011.0 |
| 20260507130146 | 40 | 142 | 0.0 | 1.0 | 0.00 | 0.00 | 0.00 | 67 | 1010.9 |
| 20260507125645 | 40 | 144 | 0.0 | 1.0 | 0.00 | 0.00 | 0.00 | 68 | 1010.6 |
| 20260507125142 | 39 | 145 | 0.0 | 1.0 | 0.00 | 0.00 | 0.00 | 67 | 1010.8 |
| 20260507124638 | 38 | 146 | 0.0 | 1.0 | 0.00 | 0.00 | 0.00 | 70 | 1010.9 |
| 20260507124136 | 38 | 146 | 0.0 | 0.0 | 0.00 | 0.00 | 0.00 | 70 | 1010.7 |
| 20260507123634 | 38 | 146 | 0.0 | 0.0 | 0.00 | 0.00 | 0.00 | 71 | 1011.0 |
| 20260507123131 | 38 | 146 | 0.0 | 0.0 | 0.00 | 0.00 | 0.00 | 72 | 1011.0 |
| 20260507122626 | 38 | 146 | 0.0 | 1.0 | 0.00 | 0.00 | 0.00 | 72 | 1010.8 |
| 20260507122122 | 38 | 146 | 0.0 | 0.0 | 0.00 | 0.00 | 0.00 | 72 | 1011.1 |
| 20260507121618 | 37 | 146 | 0.0 | 1.0 | 0.00 | 0.00 | 0.00 | 73 | 1011.0 |
| 20260507121114 | 37 | 146 | 0.0 | 0.0 | 0.00 | 0.00 | 0.00 | 73 | 1010.9 |
| 20260507120610 | 37 | 146 | 0.0 | 0.0 | 0.00 | 0.00 | 0.00 | 76 | 1011.2 |
| 20260507120107 | 36 | 146 | 0.0 | 0.0 | 0.00 | 0.00 | 0.00 | 77 | 1011.1 |
| 20260507115603 | 36 | 146 | 0.0 | 0.0 | 0.00 | 0.00 | 0.00 | 79 | 1010.8 |
| 20260507115059 | 36 | 146 | 0.0 | 0.0 | 0.00 | 0.00 | 0.00 | 80 | 1010.8 |
| 20260507114555 | 35 | 146 | 0.0 | 0.0 | 0.00 | 0.00 | 0.00 | 80 | 1011.1 |
| 20260507114053 | 35 | 146 | 0.0 | 0.0 | 0.00 | 0.00 | 0.00 | 79 | 1010.8 |
| 20260507113549 | 35 | 146 | 0.0 | 0.0 | 0.00 | 0.00 | 0.00 | 79 | 1010.7 |
| 20260507113047 | 35 | 146 | 0.0 | 0.0 | 0.00 | 0.00 | 0.00 | 77 | 1011.0 |
| 20260507112545 | 35 | 146 | 0.0 | 0.0 | 0.00 | 0.00 | 0.00 | 76 | 1011.0 |
| 20260507112041 | 35 | 147 | 0.0 | 0.0 | 0.00 | 0.00 | 0.00 | 74 | 1010.8 |
| 20260507111538 | 35 | 147 | 0.0 | 0.0 | 0.00 | 0.00 | 0.00 | 75 | 1011.0 |
| 20260507111035 | 35 | 147 | 0.0 | 0.0 | 0.00 | 0.00 | 0.00 | 74 | 1011.0 |
| 20260507110531 | 35 | 147 | 0.0 | 0.0 | 0.00 | 0.00 | 0.00 | 75 | 1010.7 |
| 20260507110027 | 35 | 147 | 0.0 | 1.0 | 0.00 | 0.00 | 0.00 | 75 | 1010.9 |
| 20260507105525 | 35 | 147 | 0.0 | 1.0 | 0.00 | 0.00 | 0.00 | 75 | 1010.8 |
| 20260507105020 | 35 | 147 | 0.0 | 1.0 | 0.00 | 0.00 | 0.00 | 75 | 1010.7 |
| 20260507104518 | 35 | 147 | 0.0 | 1.0 | 0.00 | 0.00 | 0.00 | 76 | 1010.8 |
| 20260507104015 | 35 | 147 | 0.0 | 0.0 | 0.00 | 0.00 | 0.00 | 76 | 1010.7 |
| 20260507103511 | 35 | 147 | 0.0 | 0.0 | 0.00 | 0.00 | 0.00 | 75 | 1010.9 |
| 20260507103007 | 35 | 147 | 0.0 | 0.0 | 0.00 | 0.00 | 0.00 | 75 | 1011.0 |
| 20260507102504 | 35 | 147 | 0.0 | 1.0 | 0.00 | 0.00 | 0.00 | 74 | 1010.9 |
| 20260507102000 | 36 | 147 | 0.0 | 0.0 | 0.00 | 0.00 | 0.00 | 75 | 1010.9 |
| 20260507101455 | 36 | 147 | 0.0 | 1.0 | 0.00 | 0.00 | 0.00 | 72 | 1010.9 |
| 20260507100953 | 36 | 149 | 0.0 | 1.0 | 0.00 | 0.00 | 0.00 | 72 | 1010.9 |
| 20260507100450 | 37 | 149 | 0.0 | 0.0 | 0.00 | 0.00 | 0.00 | 72 | 1010.7 |
| 20260507095948 | 37 | 149 | 0.0 | 0.0 | 0.00 | 0.00 | 0.00 | 72 | 1011.0 |
| 20260507095445 | 37 | 149 | 1.0 | 1.0 | 0.00 | 0.00 | 0.00 | 70 | 1011.1 |
| 20260507094942 | 37 | 149 | 0.0 | 1.0 | 0.00 | 0.00 | 0.00 | 71 | 1011.1 |
| 20260507094438 | 37 | 149 | 0.0 | 1.0 | 0.00 | 0.00 | 0.00 | 70 | 1011.1 |
| 20260507093935 | 36 | 145 | 0.0 | 0.0 | 0.00 | 0.00 | 0.00 | 72 | 1011.0 |
| 20260507093433 | 36 | 145 | 0.0 | 0.0 | 0.00 | 0.00 | 0.00 | 72 | 1011.0 |
| 20260507092931 | 36 | 145 | 0.0 | 1.0 | 0.00 | 0.00 | 0.00 | 72 | 1011.1 |
| 20260507092427 | 36 | 145 | 0.0 | 1.0 | 0.00 | 0.00 | 0.00 | 73 | 1011.0 |
| 20260507091924 | 36 | 145 | 0.0 | 0.0 | 0.00 | 0.00 | 0.00 | 74 | 1011.1 |
| 20260507091420 | 36 | 145 | 0.0 | 1.0 | 0.00 | 0.00 | 0.00 | 75 | 1011.0 |
| 20260507090916 | 36 | 145 | 0.0 | 1.0 | 0.00 | 0.00 | 0.00 | 75 | 1011.0 |
| 20260507090412 | 36 | 144 | 0.0 | 1.0 | 0.00 | 0.00 | 0.00 | 75 | 1010.7 |
| 20260507085909 | 36 | 144 | 0.0 | 0.0 | 0.00 | 0.00 | 0.00 | 76 | 1010.8 |
| 20260507085406 | 36 | 144 | 0.0 | 0.0 | 0.00 | 0.00 | 0.00 | 76 | 1010.7 |
| 20260507084904 | 36 | 144 | 0.0 | 0.0 | 0.00 | 0.00 | 0.00 | 76 | 1010.9 |
| 20260507084400 | 36 | 144 | 0.0 | 0.0 | 0.00 | 0.00 | 0.00 | 76 | 1010.9 |
| 20260507083857 | 36 | 144 | 0.0 | 0.0 | 0.00 | 0.00 | 0.00 | 76 | 1010.7 |
| 20260507083353 | 36 | 144 | 0.0 | 0.0 | 0.00 | 0.00 | 0.00 | 75 | 1010.7 |
| 20260507082850 | 36 | 144 | 0.0 | 1.0 | 0.00 | 0.00 | 0.00 | 74 | 1011.0 |
| 20260507082345 | 36 | 144 | 0.0 | 0.0 | 0.00 | 0.00 | 0.00 | 74 | 1010.9 |
| 20260507081843 | 36 | 144 | 0.0 | 0.0 | 0.00 | 0.00 | 0.00 | 75 | 1010.9 |
| 20260507081339 | 36 | 144 | 0.0 | 0.0 | 0.00 | 0.00 | 0.00 | 75 | 1010.8 |
| 20260507080836 | 36 | 144 | 0.0 | 0.0 | 0.00 | 0.00 | 0.00 | 75 | 1010.5 |
| 20260507080332 | 36 | 144 | 0.0 | 0.0 | 0.00 | 0.00 | 0.00 | 76 | 1010.7 |
| 20260507075828 | 36 | 144 | 0.0 | 0.0 | 0.00 | 0.00 | 0.00 | 77 | 1010.6 |
| 20260507075324 | 36 | 144 | 0.0 | 0.0 | 0.00 | 0.00 | 0.00 | 76 | 1010.7 |
| 20260507074820 | 37 | 144 | 0.0 | 0.0 | 0.00 | 0.00 | 0.00 | 75 | 1010.7 |
| 20260507074318 | 37 | 144 | 0.0 | 0.0 | 0.00 | 0.00 | 0.00 | 74 | 1010.7 |
| 20260507073815 | 37 | 144 | 0.0 | 0.0 | 0.00 | 0.00 | 0.00 | 73 | 1010.9 |
| 20260507073312 | 37 | 144 | 0.0 | 0.0 | 0.00 | 0.00 | 0.00 | 73 | 1010.9 |
| 20260507072809 | 37 | 144 | 0.0 | 0.0 | 0.00 | 0.00 | 0.00 | 73 | 1010.9 |
| 20260507072308 | 37 | 144 | 0.0 | 0.0 | 0.00 | 0.00 | 0.00 | 74 | 1011.0 |
| 20260507071804 | 37 | 144 | 0.0 | 0.0 | 0.00 | 0.00 | 0.00 | 74 | 1011.3 |
| 20260507071300 | 38 | 144 | 0.0 | 0.0 | 0.00 | 0.00 | 0.00 | 73 | 1011.0 |
| 20260507070757 | 38 | 144 | 0.0 | 0.0 | 0.00 | 0.00 | 0.00 | 71 | 1011.2 |
| 20260507070254 | 38 | 144 | 0.0 | 0.0 | 0.00 | 0.00 | 0.00 | 71 | 1011.3 |
| 20260507065750 | 38 | 144 | 0.0 | 0.0 | 0.00 | 0.00 | 0.00 | 71 | 1011.5 |
| 20260507065247 | 38 | 144 | 0.0 | 0.0 | 0.00 | 0.00 | 0.00 | 72 | 1011.3 |
| 20260507064744 | 38 | 144 | 0.0 | 1.0 | 0.00 | 0.00 | 0.00 | 71 | 1011.5 |
| 20260507064243 | 38 | 144 | 0.0 | 0.0 | 0.00 | 0.00 | 0.00 | 72 | 1011.3 |
| 20260507063740 | 38 | 144 | 0.0 | 0.0 | 0.00 | 0.00 | 0.00 | 70 | 1011.4 |
| 20260507063237 | 38 | 144 | 0.0 | 1.0 | 0.00 | 0.00 | 0.00 | 68 | 1011.3 |
| 20260507062734 | 38 | 141 | 0.0 | 1.0 | 0.00 | 0.00 | 0.00 | 72 | 1011.4 |
| 20260507062231 | 38 | 141 | 0.0 | 0.0 | 0.00 | 0.00 | 0.00 | 71 | 1011.6 |
| 20260507061730 | 38 | 141 | 0.0 | 0.0 | 0.00 | 0.00 | 0.00 | 69 | 1011.6 |
| 20260507061227 | 39 | 141 | 0.0 | 0.0 | 0.00 | 0.00 | 0.00 | 67 | 1011.8 |
| 20260507060725 | 39 | 141 | 0.0 | 0.0 | 0.00 | 0.00 | 0.00 | 67 | 1011.5 |
| 20260507060221 | 39 | 141 | 0.0 | 0.0 | 0.00 | 0.00 | 0.00 | 68 | 1011.5 |
| 20260507055717 | 39 | 141 | 0.0 | 0.0 | 0.00 | 0.00 | 0.00 | 69 | 1011.7 |
| 20260507055213 | 39 | 141 | 0.0 | 1.0 | 0.00 | 0.00 | 0.00 | 69 | 1011.7 |
| 20260507054709 | 39 | 141 | 0.0 | 0.0 | 0.00 | 0.00 | 0.00 | 69 | 1011.7 |
| 20260507054206 | 39 | 141 | 0.0 | 1.0 | 0.00 | 0.00 | 0.00 | 69 | 1011.7 |
| 20260507053704 | 39 | 141 | 0.0 | 0.0 | 0.00 | 0.00 | 0.00 | 70 | 1011.8 |
| 20260507053202 | 39 | 141 | 0.0 | 0.0 | 0.00 | 0.00 | 0.00 | 70 | 1011.7 |
| 20260507052701 | 39 | 141 | 0.0 | 0.0 | 0.00 | 0.00 | 0.00 | 68 | 1011.9 |
| 20260507052156 | 39 | 141 | 0.0 | 0.0 | 0.00 | 0.00 | 0.00 | 70 | 1011.7 |
| 20260507051654 | 39 | 141 | 0.0 | 0.0 | 0.00 | 0.00 | 0.00 | 69 | 1012.0 |
| 20260507051150 | 39 | 141 | 0.0 | 0.0 | 0.00 | 0.00 | 0.00 | 68 | 1011.7 |
| 20260507050647 | 39 | 141 | 0.0 | 0.0 | 0.00 | 0.00 | 0.00 | 68 | 1012.0 |
| 20260507050144 | 39 | 141 | 0.0 | 0.0 | 0.00 | 0.00 | 0.00 | 69 | 1012.1 |
| 20260507045641 | 39 | 141 | 0.0 | 0.0 | 0.00 | 0.00 | 0.00 | 69 | 1012.1 |
| 20260507045137 | 39 | 141 | 0.0 | 0.0 | 0.00 | 0.00 | 0.00 | 69 | 1012.0 |
| 20260507044634 | 39 | 141 | 0.0 | 0.0 | 0.00 | 0.00 | 0.00 | 68 | 1011.9 |
| 20260507044131 | 39 | 141 | 0.0 | 0.0 | 0.00 | 0.00 | 0.00 | 69 | 1011.9 |
| 20260507043627 | 39 | 141 | 0.0 | 0.0 | 0.00 | 0.00 | 0.00 | 69 | 1011.9 |
| 20260507043125 | 39 | 141 | 0.0 | 0.0 | 0.00 | 0.00 | 0.00 | 68 | 1012.0 |
| 20260507042621 | 39 | 141 | 0.0 | 0.0 | 0.00 | 0.00 | 0.00 | 69 | 1012.2 |
| 20260507042116 | 39 | 141 | 0.0 | 0.0 | 0.00 | 0.00 | 0.00 | 67 | 1012.2 |
| 20260507041613 | 39 | 141 | 0.0 | 0.0 | 0.00 | 0.00 | 0.00 | 65 | 1012.0 |
| 20260507041110 | 39 | 141 | 0.0 | 0.0 | 0.00 | 0.00 | 0.00 | 64 | 1012.2 |
| 20260507040607 | 40 | 141 | 0.0 | 0.0 | 0.00 | 0.00 | 0.00 | 65 | 1012.2 |
| 20260507035559 | 40 | 141 | 0.0 | 1.0 | 0.00 | 0.00 | 0.00 | 65 | 1012.4 |
| 20260507035055 | 40 | 140 | 0.0 | 0.0 | 0.00 | 0.00 | 0.00 | 63 | 1012.3 |
| 20260507034552 | 40 | 140 | 0.0 | 0.0 | 0.00 | 0.00 | 0.00 | 61 | 1012.4 |
| 20260507034050 | 40 | 140 | 0.0 | 0.0 | 0.00 | 0.00 | 0.00 | 63 | 1012.4 |
| 20260507033548 | 40 | 140 | 0.0 | 1.0 | 0.00 | 0.00 | 0.00 | 60 | 1012.3 |
| 20260507033044 | 40 | 140 | 0.0 | 0.0 | 0.00 | 0.00 | 0.00 | 60 | 1012.2 |
| 20260507032541 | 39 | 140 | 0.0 | 0.0 | 0.00 | 0.00 | 0.00 | 62 | 1012.4 |
| 20260507032038 | 39 | 140 | 0.0 | 0.0 | 0.00 | 0.00 | 0.00 | 62 | 1012.3 |
| 20260507031535 | 40 | 140 | 0.0 | 0.0 | 0.00 | 0.00 | 0.00 | 62 | 1012.3 |
| 20260507031032 | 40 | 140 | 0.0 | 0.0 | 0.00 | 0.00 | 0.00 | 62 | 1012.4 |
| 20260507030528 | 40 | 140 | 0.0 | 0.0 | 0.00 | 0.00 | 0.00 | 62 | 1012.4 |
| 20260507030026 | 40 | 140 | 0.0 | 0.0 | 0.00 | 0.00 | 0.00 | 62 | 1012.6 |
| 20260507025523 | 40 | 140 | 0.0 | 0.0 | 0.00 | 0.00 | 0.00 | 63 | 1012.5 |
| 20260507025020 | 40 | 140 | 0.0 | 0.0 | 0.00 | 0.00 | 0.00 | 62 | 1012.3 |
| 20260507024518 | 40 | 140 | 0.0 | 0.0 | 0.00 | 0.00 | 0.00 | 62 | 1012.6 |
| 20260507024014 | 40 | 140 | 0.0 | 0.0 | 0.00 | 0.00 | 0.00 | 62 | 1012.4 |
| 20260507023510 | 40 | 140 | 0.0 | 0.0 | 0.00 | 0.00 | 0.00 | 61 | 1012.5 |
| 20260507023009 | 40 | 140 | 0.0 | 0.0 | 0.00 | 0.00 | 0.00 | 61 | 1012.6 |
| 20260507022505 | 40 | 140 | 0.0 | 0.0 | 0.00 | 0.00 | 0.00 | 62 | 1012.6 |
| 20260507022000 | 40 | 140 | 0.0 | 0.0 | 0.00 | 0.00 | 0.00 | 59 | 1012.7 |
| 20260507021456 | 41 | 140 | 0.0 | 0.0 | 0.00 | 0.00 | 0.00 | 60 | 1012.6 |
| 20260507020953 | 41 | 140 | 0.0 | 0.0 | 0.00 | 0.00 | 0.00 | 58 | 1012.4 |
| 20260507020450 | 41 | 140 | 0.0 | 0.0 | 0.00 | 0.00 | 0.00 | 59 | 1012.4 |
| 20260507015947 | 41 | 140 | 0.0 | 0.0 | 0.00 | 0.00 | 0.00 | 57 | 1012.4 |
| 20260507015446 | 41 | 140 | 0.0 | 0.0 | 0.00 | 0.00 | 0.00 | 57 | 1012.3 |
| 20260507014942 | 41 | 140 | 0.0 | 0.0 | 0.00 | 0.00 | 0.00 | 57 | 1012.4 |
| 20260507014439 | 41 | 140 | 0.0 | 0.0 | 0.00 | 0.00 | 0.00 | 58 | 1012.4 |
| 20260507013935 | 41 | 140 | 0.0 | 0.0 | 0.00 | 0.00 | 0.00 | 57 | 1012.5 |
| 20260507013432 | 41 | 140 | 0.0 | 1.0 | 0.00 | 0.00 | 0.00 | 56 | 1012.2 |
| 20260507012929 | 41 | 140 | 0.0 | 0.0 | 0.00 | 0.00 | 0.00 | 56 | 1012.5 |
| 20260507012426 | 42 | 140 | 0.0 | 0.0 | 0.00 | 0.00 | 0.00 | 56 | 1012.4 |
| 20260507011923 | 42 | 140 | 0.0 | 1.0 | 0.00 | 0.00 | 0.00 | 55 | 1012.4 |
| 20260507011420 | 42 | 138 | 0.0 | 1.0 | 0.00 | 0.00 | 0.00 | 54 | 1012.5 |
| 20260507010919 | 42 | 140 | 0.0 | 1.0 | 0.00 | 0.00 | 0.00 | 55 | 1012.4 |
| 20260507010415 | 42 | 111 | 0.0 | 1.0 | 0.00 | 0.00 | 0.00 | 53 | 1012.4 |